Location: Tamazert
(32.6352°N, 5.2072°W)
Time: 05:41:51
(UTC+00:00)

Vanguard 2 - Pass Details

Date: 07 October 2022
Orbit: 553 x 2933 km, 32.9° (Epoch: 26 November)

Event Time Altitude Azimuth Distance (km) Brightness Sun altitude
Rises 11:50:44 0° 245° (WSW) 3,876 11.3 51.5°
Reaches altitude 10° 11:52:58 10° 243° (WSW) 3,155 11.0 51.6°
Maximum altitude 12:01:07 74° 160° (SSE) 1,775 10.9 51.7°
Drops below altitude 10° 12:15:01 10° 79° (E) 5,136 11.7 51.7°
Sets 12:19:44 0° 78° (ENE) 6,417 12.1 51.7°
